Fitchburg, MA

4:05 AM EST on December 15, 2017 (GMT -0500)
Fitchburg Municipal

Weather History for KFIT - July, 2013

Change the Weather History Date:

Wednesday, July 3, 2013

  Actual Average (KORH) Record (KORH)
Temperature  
Mean Temperature 75 °F -  
Max Temperature 89 °F 77 °F 96 °F (1911)
Min Temperature 62 °F 59 °F 45 °F (1940)
Cooling Degree Days 10    
Growing Degree Days 25 (Base 50)    
Moisture  
Dew Point 67 °F    
Average Humidity 79    
Maximum Humidity 94    
Minimum Humidity 55    
Precipitation  
Precipitation 0.00 in - - ()
Sea Level Pressure  
Sea Level Pressure 30.19 in    
Wind  
Wind Speed 4 mph (SSW)    
Max Wind Speed 13 mph    
Max Gust Speed 17 mph    
Visibility 7 miles    
Events Rain    
Averages and records for this station are not official NWS values.
T = Trace of Precipitation, MM = Missing Value Source: NWS Daily Summary

Daily Weather History Graph

Daily Weather History Graph

Search for Another Location

Airport or City:

Trip Planner

Search our weather history database for the weather conditions in past years. The results will help you decide how hot, cold, wet, or windy it might be!

Date:

Astronomy

Jul. 03, 2013 Rise Set
Actual Time 5:14 AM EDT 8:27 PM EDT
Civil Twilight 4:39 AM EDT 9:02 PM EDT
Nautical Twilight 3:55 AM EDT 9:47 PM EDT
Astronomical Twilight 3:01 AM EDT 10:40 PM EDT
Moon 1:53 AM EDT (7/3) 4:33 PM EDT (7/3)
Length of Visible Light 16h 22m
Length of Day
15h 13m
Waning Crescent, 18% of the Moon is Illuminated
Jul 3
Waning Crescent
Jul 8
New
Jul 15
First Quarter
Jul 22
Full
Jul 29
Last Quarter

Hourly Weather History & Observations

Time (EDT) Temp. Heat Index Dew Point Humidity Pressure Visibility Wind Dir Wind Speed Gust Speed Precip Events Conditions
12:52 AM 63.0 °F - 61.0 °F 93% 30.22 in 5.0 mi NE 3.5 mph - N/A   Overcast
1:09 AM 62.6 °F - 60.8 °F 94% 30.21 in 2.5 mi Calm Calm - N/A   Overcast
1:36 AM 62.6 °F - 60.8 °F 94% 30.21 in 3.0 mi East 3.5 mph - 0.00 in Rain Light Rain
1:52 AM 63.0 °F - 61.0 °F 93% 30.21 in 3.0 mi Calm Calm - 0.00 in Rain Light Rain
2:03 AM 62.6 °F - 60.8 °F 94% 30.20 in 2.5 mi Calm Calm - 0.00 in   Overcast
2:20 AM 62.6 °F - 60.8 °F 94% 30.20 in 3.0 mi SSE 3.5 mph - 0.00 in   Overcast
2:52 AM 63.0 °F - 61.0 °F 93% 30.19 in 4.0 mi Calm Calm - 0.00 in   Overcast
3:52 AM 63.0 °F - 61.0 °F 93% 30.19 in 4.0 mi SE 3.5 mph - N/A   Overcast
4:45 AM 64.4 °F - 62.6 °F 94% 30.18 in 5.0 mi Calm Calm - N/A   Overcast
4:52 AM 64.0 °F - 61.0 °F 90% 30.18 in 5.0 mi SSE 3.5 mph - N/A   Overcast
5:21 AM 64.4 °F - 62.6 °F 94% 30.18 in 4.0 mi SSE 3.5 mph - N/A   Mostly Cloudy
5:52 AM 66.0 °F - 63.0 °F 90% 30.19 in 4.0 mi Calm Calm - N/A   Mostly Cloudy
6:52 AM 66.9 °F - 64.0 °F 90% 30.20 in 5.0 mi Calm Calm - 0.00 in   Partly Cloudy
7:52 AM 73.0 °F - 66.9 °F 81% 30.20 in 8.0 mi ESE 3.5 mph - N/A   Scattered Clouds
8:52 AM 78.1 °F - 69.1 °F 74% 30.20 in 10.0 mi WSW 8.1 mph - N/A   Clear
9:52 AM 80.1 °F 83.2 °F 70.0 °F 71% 30.21 in 10.0 mi WSW 8.1 mph - N/A   Clear
10:52 AM 81.0 °F 84.4 °F 70.0 °F 69% 30.21 in 10.0 mi WSW 6.9 mph - N/A   Scattered Clouds
11:52 AM 82.0 °F 85.9 °F 70.0 °F 67% 30.21 in 10.0 mi West 10.4 mph - N/A   Scattered Clouds
12:52 PM 84.0 °F 88.4 °F 70.0 °F 63% 30.21 in 10.0 mi West 8.1 mph - N/A   Partly Cloudy
1:52 PM 84.9 °F 89.4 °F 70.0 °F 61% 30.19 in 10.0 mi SW 8.1 mph - N/A   Scattered Clouds
2:52 PM 88.0 °F 92.9 °F 70.0 °F 55% 30.17 in 10.0 mi SW 12.7 mph 17.3 mph N/A   Clear
3:52 PM 86.0 °F 91.5 °F 71.1 °F 61% 30.16 in 10.0 mi SSW 9.2 mph 17.3 mph N/A   Scattered Clouds
4:52 PM 86.0 °F 91.5 °F 71.1 °F 61% 30.16 in 10.0 mi WSW 3.5 mph - N/A   Clear
5:52 PM 87.1 °F 92.0 °F 70.0 °F 57% 30.15 in 10.0 mi WSW 5.8 mph - N/A   Clear
6:52 PM 84.0 °F 89.0 °F 71.1 °F 65% 30.15 in 10.0 mi SW 4.6 mph - N/A   Mostly Cloudy
7:52 PM 82.9 °F 88.0 °F 72.0 °F 69% 30.15 in 10.0 mi SW 6.9 mph - N/A   Partly Cloudy
8:52 PM 81.0 °F 85.2 °F 72.0 °F 74% 30.17 in 10.0 mi SSW 5.8 mph - N/A   Clear
9:52 PM 79.0 °F - 72.0 °F 79% 30.19 in 10.0 mi SSW 4.6 mph - N/A   Clear
10:52 PM 79.0 °F - 72.0 °F 79% 30.19 in 10.0 mi SW 3.5 mph - N/A   Clear
11:52 PM 78.1 °F - 72.0 °F 81% 30.19 in 10.0 mi WSW 9.2 mph - N/A   Clear